Regional Weather Roundup
Issued by NWS Grand Forks, ND

Home | Current Version | Previous Version | Text Only | Print | Product List | Glossary On
Versions: 1 2 3 4 5 6 7 8 9 10 11 12 13 14 15 16 17 18 19 20 21 22 23 24 25 26 27 28 29 30 31 32 33 34 35 36 37 38 39 40 41 42 43 44 45 46 47 48 49 50
000
ASUS43 KFGF 261510
RWRFGF
PRAIRIE TO PINES  WEATHER ROUNDUP
NATIONAL WEATHER SERVICE EASTERN NORTH DAKOTA/GRAND FORKS ND
900 AM CST WED NOV 26 2014

 **SATELLITE DATA USED TO AUGMENT SKY COVER AT AUTOMATED STATIONS**
 *****  WEATHER ACROSS EASTERN NORTH DAKOTA  *****

CITY           SKY/WX    TMP DP  RH WIND       PRES   REMARKS
GRAND FORKS    CLOUDY    -1  -7  75 N16       30.42R WCI -21
GRAND FRKS AFB CLOUDY    -1  -8  72 N15       30.41R WCI -21
GRAND FRKS NWS   N/A      0 N/A N/A N12         N/A  WCI -18
DEVILS LAKE    CLOUDY     0 N/A N/A N9        30.34R WCI -16
FARGO          CLOUDY     2  -4  76 N17       30.36R WCI -18
WAHPETON ARPT  CLOUDY     5   0  78 N22G28    30.31R WCI -16
$$

 ***** WEATHER ACROSS CENTRAL AND WESTERN NORTH DAKOTA  *****

CITY           SKY/WX    TMP DP  RH WIND       PRES   REMARKS
BISMARCK       LGT SNOW   7   3  84 E3        30.35R FOG
MINOT          CLOUDY     3  -2  79 N6        30.35R WCI  -8
JAMESTOWN      CLOUDY     2  -5  72 N12       30.33R WCI -15
MINOT AFB      CLOUDY     3  -1  83 NE7       30.36R HAZE    WCI -10
GARRISON         N/A      6   2  83 VRB3      30.32R
WILLISTON      CLOUDY    10   4  76 N10       30.32R WCI  -4
DICKINSON      LGT SNOW  19  15  84 N6        30.22R FOG     WCI  11
HETTINGER      CLOUDY    21  18  88 S7        30.22R WCI  12
$$

 *****  OTHER AIRPORT OBSERVATIONS IN OUR AREA  *****

CITY           SKY/WX    TMP DP  RH WIND       PRES   REMARKS
WALHALLA         N/A     -6  -9  84 NW7       30.45R WCI -20
GRAFTON AIRPOR CLOUDY    -2  -9  71 N16       30.44R WCI -23
VALLEY CITY AR CLOUDY     0  -8  71 N13       30.33R WCI -18
CANDO          CLOUDY     0  -6  78 N12       30.38R WCI -18
CAVALIER APRT  PTSUNNY   -4  -9  77 N9        30.45R WCI -20
GWINNER        PTSUNNY    5  -4  66 N16G23    30.34R WCI -14
ROLLA          CLOUDY    -4 -11  71 NE9       30.35R WCI -20
 ***** THE ABOVE OBSERVATIONS ARE NON NWS ARE NOT QUALITY
       CONTROLLED AND MAY MIS-REPORT RAIN FOR SNOW...
$$

  *****  WEATHER ACROSS NORTHERN MINNESOTA  *****

CITY           SKY/WX    TMP DP  RH WIND       PRES   REMARKS
FLAG ISLAND    CLEAR     -8 -13  77 NW10      30.33R WCI -26
WARROAD        CLEAR     -8 -13  77 NW8       30.34R WCI -23
ROSEAU         FAIR      -6 -11  77 NW9       30.37R WCI -22
HALLOCK        CLEAR     -8 -13  77 N9        30.43R WCI -25
THF RVR FALLS  CLOUDY     0  -8  71 N13       30.34R WCI -18
BAUDETTE       CLOUDY    -1  -6  79 N7        30.30R WCI -14
WASKISH        CLEAR      3   0  85 CALM      30.28R
CROOKSTON      MOCLDY     1  -4  78 N17       30.39R WCI -19
STEPHEN NDAWN    N/A     -6  -9  84 N12         N/A  WCI -24
GREENBUSH NDAW   N/A     -8 -11  84 NW12        N/A  WCI -27
$$
  *****  WEATHER ACROSS CENTRAL AND WEST MINNESOTA  *****

CITY           SKY/WX    TMP DP  RH WIND       PRES   REMARKS
FOSSTON        MOCLDY     1  -2  85 N12       30.29R WCI -15
BEMIDJI        LGT SNOW   7   2  82 N6        30.25R WCI  -3
PARK RAPIDS    FLURRIES  12   7  80 N10       30.21R WCI  -1
ELBOW LAKE       N/A     14  10  85 N16G22    30.21R WCI  -2
WADENA         FLURRIES  14  10  85 N12       30.20R WCI   0
DETROIT LAKES  LGT SNOW   9   5  85 N12G21    30.25R WCI  -6
MOORHEAD       CLOUDY     1   0  92 N22       30.36R FOG     WCI -21
FERGUS FALLS   CLOUDY    12   5  73 N12G18    30.29R WCI  -2
MORRIS MN      PTSUNNY   12   9  85 NW20      30.21R FOG     WCI  -6
STAPLES        CLOUDY    16  12  86 N12       30.19R WCI   3
$$
  *****  WEATHER ELSEWHERE ACROSS MINNESOTA  *****

CITY           SKY/WX    TMP DP  RH WIND       PRES   REMARKS
DULUTH         FLURRIES  18  12  77 N10       30.13R WCI   6
INTRNTL FALLS  CLEAR      4  -1  80 N13       30.26R WCI -13
ELY            FLURRIES  12  10  92 NW5       30.15R WCI   4
CLOQUET        PTSUNNY   19  16  86 N7        30.14R WCI  10
WHEATON        CLOUDY     7   3  85 NW18G26   30.30R WCI -12
BRAINERD       PTSUNNY   17  13  84 N9        30.18R WCI   6
HIBBING        CLOUDY    15   9  76 N12       30.18R WCI   2
ALEXANDRIA     PTSUNNY   18  13  80 N13       30.18R WCI   5
SAINT CLOUD    PTSUNNY   22  17  81 N7        30.16R WCI  13
MINNEAPOLIS    LGT SNOW  23  20  88 NE8       30.14R VSB 3/4 WCI  14
$$

  *****  WEATHER ACROSS SOUTH DAKOTA  *****

CITY           SKY/WX    TMP DP  RH WIND       PRES   REMARKS
SIOUX FALLS    LGT SNOW  23  18  81 N20G25    30.10R WCI   8
BROOKINGS      NOT AVBL
WATERTOWN      CLOUDY    10   5  80 N16       30.19R WCI  -7
HURON          LGT SNOW  10   6  84 N22G28    30.29R FOG     WCI -10
SISSETON         N/A      7   3  84 N22       30.28R WCI -14
ABERDEEN       CLEAR      5  -3  69 N15       30.31R WCI -13
MITCHELL       CLOUDY    15  10  80 N23G32    30.24R BLWGSNOWWCI  -3
PIERRE         CLOUDY    19  14  81 NE8       30.29R WCI   9
MOBRIDGE       CLOUDY    12   7  80 NE7       30.28R WCI   1
RAPID CITY     FLURRIES  24  21  88 SE6       30.22R WCI  17
$$

  *****  SOME WEATHER IN NEARBY STATES *****

CITY           SKY/WX    TMP DP  RH WIND       PRES   REMARKS
GLASGOW MT     CLOUDY    21  16  81 E9        30.26R WCI  11
GREAT FALLS MT LGT SNOW  28  28 100 CALM      30.13S VSB 1
CHEYENNE WY    MIX PCPN  22  18  85 CALM      30.15R
SCOTTSBLUFF NE LGT SNOW  29  26  89 W8        30.22R FOG     WCI  21
OMAHA NE       LGT RAIN  37  33  85 NW29G37   29.95R
DES MOINES IA  LGT SNOW  30  26  85 E9        29.90R FOG     WCI  22
DAVENPORT IA   MOSUNNY   22  18  85 E14       30.06S FOG     WCI   9
CHICAGO IL     CLOUDY    22  18  85 CALM      30.15S FOG
EAU CLAIRE WI  CLOUDY    22  16  78 E3        30.13R
LA CROSSE WI   CLOUDY    22  16  78 E7        30.13R WCI  13
$$

  *****  SOME NATIONAL WEATHER *****

CITY           SKY/WX    TMP DP  RH WIND       PRES   REMARKS
LA GUARDIA NY  LGTSLEET  37  34  89 NE13      30.13F FOG
RALEIGH NC     LGT RAIN  45  41  86 NE15G23   29.93F FOG
ATLANTA GA     SUNNY     47  31  53 NW10      30.09R
NEW ORLEANS LA MOSUNNY   51  40  65 S7        30.29R
OKLAHOMA CITY  PTSUNNY   46  30  53 N17       30.12R
ALBUQUERQUE NM MOSUNNY   36   9  32 CALM      30.37R
SALT LAKE CITY PTCLDY    39  27  62 SE9       30.38R
LOS ANGELES CA CLEAR     59  23  25 CALM      30.23R
BOISE ID       PTCLDY    38  35  89 SE5       30.32R
SEATTLE WA     MOCLDY    55  51  86 SW15G23   30.13F
$$

*** WEATHER ACROSS MANITOBA...SASKATCHEWAN AND ONTARIO ***
                ***ONTARIO***

CITY           SKY/WX    TMP DP  RH WIND       PRES   REMARKS
GERALDTON      CLOUDY    -4 -11  71 N7        30.21  WCI -18
THUNDER BAY    LGT SNOW  14   9  79 N6        30.21R VSB 1   WCI   5
SIOUX LOOKOUT  PTCLDY   -11 -17  77 N3        30.28R
TORONTO        CLOUDY    34  23  64 NE8       30.18F
BIG TROUT LK   CLEAR    -22 -29  69 W6        30.28R WCI -38
PICKLE LAKE    PTCLDY   -20 -27  69 W5        30.26R WCI -33
DRYDEN         CLEAR     -8 -11  84 NE7       30.27R WCI -22
KENORA         PTCLDY   -11 -17  77 N7        30.30R WCI -26
$$
                *** MANITOBA***

CITY           SKY/WX    TMP DP  RH WIND       PRES   REMARKS
BRANDON        PTCLDY   -11 -17  77 W2        30.42R
DAUPHIN        CLEAR    -22 -27  76 W7        30.46R WCI -39
ISLAND LAKE    CLEAR    -20 -29  63 W8        30.35R WCI -39
PILOT MOUND      N/A    -11 -15  84 N3          N/A
THE PAS        PTCLDY   -20 -26  76 W2        30.46R
THOMPSON       PTCLDY   -27 -33  75 W3        30.37R
WINNIPEG       CRYSTALS -17 -24  70 NW3       30.47R
LYNN LAKE      CLEAR    -22 -29  69 W7        30.35R WCI -39
CHURCHILL      CRYSTALS -11 -18  70 W13G18    30.25R WCI -32
GILLAM         PTCLDY   -18 -26  69 NW14      30.31R WCI -42
$$
                ***SASKATCHEWAN***

CITY           SKY/WX    TMP DP  RH WIND       PRES   REMARKS
ESTEVAN        PTCLDY    -6  -9  84 NE9       30.34  WCI -22
KINDERSLEY     CLOUDY    10   7  85 SE8       30.25S WCI  -1
LLOYDMINSTER   CLOUDY     0  -4  85 SE10      30.24F WCI -17
PRINCE ALBERT  CRYSTALS -27 -35  68 CALM      30.44R FOG
REGINA         PTCLDY    -8 -11  84 SE5       30.38R WCI -19
YORKTON        PTCLDY   -13 -17  84 W3        30.40R
N. BATTLEFORD  FLURRIES  -2  -6  84 E12       30.36S WCI -20
LA RONGE       PTCLDY   -26 -31  75 CALM      30.43R
SASKATOON      CRYSTALS   1  -2  85 E3        30.39R
SWIFT CURRENT  FLURRIES  10   9  92 E7        30.24R WCI   0
$$
NOTE: THESE ARE AUTOMATED STATIONS WITH LIMITED QUALITY CONTROL
      "FAIR" INDICATES FEW OR NO CLOUDS BELOW 12,000 FEET WITH NO
      SIGNIFICANT WEATHER AND/OR OBSTRUCTIONS TO VISIBILITY.
      SKY/WX - SKY CONDITION AND SIGNIFICANT WEATHER.
      TMP - AIR TEMPERATURE.    DP   - DEWPOINT TEMPERATURE.
      RH  - RELATIVE HUMIDITY.  PRES - PRESSURE.
      HX  - HEAT INDEX.         WCI  - WIND CHILL INDEX.
$


USA.gov is the U.S. government's official web portal to all federal, state and local government web resources and services.